This is the latest recevied weather packets stored in our database for station/object SV9TNF-56. If no packets are shown the sender has not sent any weather packets the latest 10 day(s).
| Time | Temp. | Humidity | Pressure | Rain* | Wind** | Luminosity | Snow |
|---|---|---|---|---|---|---|---|
| 1787983003 | 23.89° C | 57% | 1019.3 hPa | 0 mm | 12.07 m/s, 102° | - | - |
| 1787982703 | 23.33° C | 54% | 1019 hPa | 0 mm | 23.25 m/s, 138° | - | - |
| 1787982403 | 23.33° C | 55% | 1019 hPa | 0 mm | 12.52 m/s, 159° | - | - |
| 1787982102 | 23.33° C | 57% | 1019.6 hPa | 0 mm | 11.18 m/s, 277° | - | - |
| 1787981803 | 23.33° C | 54% | 1019.3 hPa | 0 mm | 8.05 m/s, 132° | - | - |
| 1787981502 | 23.33° C | 56% | 1019.3 hPa | 0 mm | 14.31 m/s, 54° | - | - |
| 1787981203 | 23.33° C | 53% | 1019 hPa | 0 mm | 8.49 m/s, 132° | - | - |
| 1787980902 | 23.33° C | 52% | 1019.3 hPa | 0 mm | 23.69 m/s, 96° | - | - |
| 1787980602 | 23.33° C | 53% | 1019.3 hPa | 0 mm | 25.48 m/s, 137° | - | - |
| 1787980302 | 23.33° C | 54% | 1019 hPa | 0 mm | 21.9 m/s, 184° | - | - |
| 1787980002 | 23.33° C | 54% | 1019 hPa | 0 mm | 31.74 m/s, 111° | - | - |
| 1787979702 | 23.33° C | 55% | 1019 hPa | 0 mm | 30.85 m/s, 90° | - | - |
| 1787979402 | 23.33° C | 55% | 1019 hPa | 0 mm | 8.94 m/s, 138° | - | - |
| 1787979102 | 23.33° C | 58% | 1019.3 hPa | 0 mm | 22.35 m/s, 84° | - | - |
| 1787978801 | 23.33° C | 57% | 1019.3 hPa | 0 mm | 8.94 m/s, 174° | - | - |
| 1787978501 | 23.33° C | 58% | 1019.3 hPa | 0 mm | 16.54 m/s, 147° | - | - |
| 1787978202 | 23.33° C | 56% | 1019 hPa | 0 mm | 24.59 m/s, 148° | - | - |
| 1787977901 | 23.33° C | 57% | 1019 hPa | 0 mm | 21.01 m/s, 183° | - | - |
| 1787977601 | 23.33° C | 57% | 1019 hPa | 0 mm | 29.06 m/s, 117° | - | - |
| 1787977301 | 23.33° C | 56% | 1019 hPa | 0 mm | 28.16 m/s, 115° | - | - |
| 1787977001 | 23.33° C | 57% | 1019 hPa | 0 mm | 16.99 m/s, 153° | - | - |
| 1787976701 | 23.33° C | 57% | 1019 hPa | 0 mm | 16.09 m/s, 66° | - | - |
| 1787976401 | 23.33° C | 57% | 1018.6 hPa | 0 mm | 16.99 m/s, 120° | - | - |
| 1787976101 | 23.33° C | 58% | 1018.6 hPa | 0 mm | 25.48 m/s, 111° | - | - |
| 1787975800 | 23.33° C | 58% | 1018.6 hPa | 0 mm | 13.86 m/s, 98° | - | - |
* Rain latest hour (hover to see other rain measurements)
** Current wind speed in m/s (hover to see current wind gust speed)